weather.gov     
National Weather Service

Regional Weather Roundup
NWS Homepage
This page is being discontinued on March 12, 2014.
The same data is available at this site. Please update your bookmarks.
Thank you, and we apologize for the inconvenience.
Please send an email to SR-SRH.Webmaster@noaa.gov with any concerns.


Current Version
Previous Version:    01  02  03  04  05  06  07  08  09  10  11  12  13  14  15  16  17  18  19  20  21  22  23  24  25  26  27  28  29  30  
   31  32  33  34  35  36  37  38  39  40  41  42  43  44  45  46  47  48  49  50  51  52  53  
[Printable]
355
ASUS44 KJAN 220010
RWRMS

MISSISSIPPI HOURLY WEATHER ROUNDUP
NATIONAL WEATHER SERVICE JACKSON MS
600 PM CST FRI NOV 21 2014

NOTE: "FAIR: INDICATES FEW OR NO CLOUDS BELOW 12,000 FEET WITH NO
SIGNIFICANT WEATHER AND/OR OBSTRUCTIONS TO VISIBILITY.

MSZ001>002-007>008-010>013-018>021-025>028-034>036-220100-
NORTHWEST MISSISSIPPI

CITY           SKY/WX    TMP DP  RH WIND       PRES   REMARKS
CLARKSDALE     MOCLDY    55  54  94 CALM      30.27R
CLEVELAND      CLOUDY    63  49  61 SE5       30.25R
GREENWOOD      CLOUDY    64  47  53 SE8       30.27R
6HR MIN TEMP:  64; 6HR MAX TEMP:  72;

GREENVILLE     CLOUDY    64  47  53 SE10      30.24R
6HR MIN TEMP:  63; 6HR MAX TEMP:  71;

GRENADA        CLOUDY    55  50  82 CALM      30.28S
OLIVE BRANCH   PTCLDY    52  43  71 CALM      30.29S
OXFORD         FAIR      55  45  67 E5        30.31R
TUNICA         PTCLDY    52  46  82 NE3       30.28S
$$

MSZ003>006-009-014>017-022>024-029>033-037>039-220100-
NORTHEAST MISSISSIPPI

CITY           SKY/WX    TMP DP  RH WIND       PRES   REMARKS
COLUMBUS AFB   PTCLDY    56  47  72 SE3       30.32R
6HR MIN TEMP:  56; 6HR MAX TEMP:  66;

CORINTH        CLOUDY    55  36  47 E3        30.31S
GOLDN TRIANGLE PTCLDY    61  45  55 SE6       30.30S
STARKVILLE     CLOUDY    57  50  77 CALM      30.31R
TUPELO           N/A     58  46  64 E3        30.31S
6HR MIN TEMP:  57; 6HR MAX TEMP:  64;

$$

MSZ040-058-220100-
CENTRAL MISSISSIPPI

CITY           SKY/WX    TMP DP  RH WIND       PRES   REMARKS
JACKSON INTL   MOCLDY    61  46  57 E7        30.27S
6HR MIN TEMP:  60; 6HR MAX TEMP:  71;

JACKSON HAWKNS CLOUDY    63  44  50 SE8       30.27R
6HR MIN TEMP:  63; 6HR MAX TEMP:  71;

MERIDIAN KEY   CLEAR     54  45  71 S3        30.31R
6HR MIN TEMP:  53; 6HR MAX TEMP:  90;

MERIDIAN NAS   CLEAR     58  45  62 CALM      30.32R
6HR MIN TEMP:  56; 6HR MAX TEMP:  69;

RAYMOND        FAIR      57  54  88 MISG      30.26R
VICKSBURG      PTCLDY    60  49  66 SE5       30.24S
6HR MIN TEMP:  59; 6HR MAX TEMP:  72;

$$

MSZ059>079-220100-
SOUTH MISSISSIPPI

CITY           SKY/WX    TMP DP  RH WIND       PRES   REMARKS
BROOKHAVEN     FAIR      61  45  55 E3        30.27S
HATTIESBURG    CLEAR     58  45  62 CALM      30.29R
6HR MIN TEMP:  57; 6HR MAX TEMP:  71;

MCCOMB         CLEAR     60  42  51 SE8       30.26S
6HR MIN TEMP:  60; 6HR MAX TEMP:  71;

NATCHEZ        PTCLDY    63  46  55 SE5       30.25R
6HR MIN TEMP:  63; 6HR MAX TEMP:  70;

PINE BELT      CLEAR     55  43  62 CALM      30.30S
6HR MIN TEMP:  55; 6HR MAX TEMP:  70;

$$

MSZ080>082-220100-
COASTAL MISSISSIPPI

CITY           SKY/WX    TMP DP  RH WIND       PRES   REMARKS
BAY ST LOUIS   CLEAR     57  46  67 SE5       30.29
BILOXI         CLEAR     59  49  69 E5        30.29S
6HR MIN TEMP:  59; 6HR MAX TEMP:  69;

PASCAGOULA     CLEAR     49  46  90 CALM      30.30R
6HR MIN TEMP:  49; 6HR MAX TEMP:  70;

GULFPORT       CLEAR     58  49  72 E8        30.28S
6HR MIN TEMP:  57; 6HR MAX TEMP:  69;

$$




U.S. Dept. of Commerce
NOAA National Weather Service
1325 East West Highway
Silver Spring, MD 20910
E-mail: w-nws.webmaster@noaa.gov
Page last modified: May 16, 2007
NATIONAL WEATHER SERVICE: for Safety, for Work, for Fun - FOR LIFE